EZY11BN EPWA-LGSK

Flight info

Callsign EZY11BN
Flight time N/A
Altitude 39000
Route EVINA M985 POBOK DCT SUPAK DCT TEPNI DCT ABONY DCT PARAK DCT IRGOR DCT IBISI DCT MAKED UL617 IBIDI
Aircraft B736/M-SDE2E3FGHIRWXY/LB1

Departure

Time 2026-05-08 05:11
Airport Warsaw Chopin Airport (EPWA)

Arrival

Time N/A
Airport Skiathos Island National Airport (LGSK)
Time Latitude Longitude Altitude Speed Heading
2026-05-08 04:49 52.17409 20.97020 333 ft 0 kts 242°
2026-05-08 05:02 52.17412 20.97029 338 ft 2 kts 239°
2026-05-08 05:03 52.17420 20.97052 338 ft 2 kts 241°
2026-05-08 05:03 52.17428 20.97076 336 ft 2 kts 242°
2026-05-08 05:03 52.17434 20.97101 336 ft 2 kts 288°
2026-05-08 05:03 52.17426 20.97118 338 ft 1 kts 327°
2026-05-08 05:04 52.17424 20.97121 338 ft 0 kts 329°
2026-05-08 05:05 52.17424 20.97120 338 ft 0 kts 329°
2026-05-08 05:06 52.17434 20.97112 336 ft 3 kts 330°
2026-05-08 05:06 52.17467 20.97083 335 ft 7 kts 332°
2026-05-08 05:06 52.17517 20.97039 334 ft 9 kts 331°
2026-05-08 05:06 52.17578 20.96986 338 ft 10 kts 332°
2026-05-08 05:07 52.17625 20.96900 337 ft 11 kts 269°
2026-05-08 05:07 52.17588 20.96787 336 ft 12 kts 239°
2026-05-08 05:07 52.17542 20.96663 335 ft 14 kts 239°
2026-05-08 05:07 52.17481 20.96537 334 ft 15 kts 231°
2026-05-08 05:08 52.17424 20.96398 338 ft 12 kts 207°
2026-05-08 05:08 52.17340 20.96440 335 ft 14 kts 152°
2026-05-08 05:08 52.17249 20.96519 336 ft 16 kts 152°
2026-05-08 05:08 52.17147 20.96609 334 ft 18 kts 152°
2026-05-08 05:09 52.17031 20.96710 334 ft 20 kts 152°
2026-05-08 05:09 52.16907 20.96818 337 ft 20 kts 152°
2026-05-08 05:09 52.16784 20.96926 335 ft 20 kts 152°
2026-05-08 05:09 52.16665 20.97030 337 ft 19 kts 152°
2026-05-08 05:10 52.16550 20.97131 337 ft 18 kts 152°
2026-05-08 05:10 52.16496 20.96992 335 ft 33 kts 295°
2026-05-08 05:10 52.16707 20.96244 338 ft 110 kts 294°
2026-05-08 05:11 52.17092 20.94825 544 ft 151 kts 295°
2026-05-08 05:11 52.17523 20.93254 1530 ft 151 kts 292°
2026-05-08 05:11 52.17957 20.91738 2332 ft 150 kts 291°
2026-05-08 05:11 52.18160 20.90121 3001 ft 145 kts 250°
2026-05-08 05:12 52.17856 20.88578 3695 ft 148 kts 257°
2026-05-08 05:12 52.17682 20.86809 4082 ft 174 kts 256°
2026-05-08 05:12 52.17427 20.84719 4360 ft 202 kts 256°
2026-05-08 05:12 52.17129 20.82339 4623 ft 225 kts 256°
2026-05-08 05:13 52.16808 20.79796 5167 ft 232 kts 256°
2026-05-08 05:13 52.16478 20.77197 5791 ft 236 kts 256°
2026-05-08 05:13 52.16136 20.74516 6263 ft 251 kts 256°
2026-05-08 05:13 52.15637 20.71737 6823 ft 261 kts 241°
2026-05-08 05:14 52.14506 20.69446 7782 ft 260 kts 221°
2026-05-08 05:14 52.13093 20.67599 8757 ft 262 kts 218°
2026-05-08 05:14 52.11636 20.65787 9665 ft 266 kts 218°
2026-05-08 05:14 52.10151 20.63950 10477 ft 272 kts 218°
2026-05-08 05:15 52.08574 20.61988 10733 ft 299 kts 218°
2026-05-08 05:15 52.06856 20.59838 10926 ft 325 kts 218°
2026-05-08 05:15 52.05038 20.57556 11292 ft 341 kts 218°
2026-05-08 05:15 52.03142 20.55172 11988 ft 347 kts 218°
2026-05-08 05:16 52.01227 20.52761 12795 ft 350 kts 218°
2026-05-08 05:16 51.99288 20.50320 13614 ft 354 kts 218°
2026-05-08 05:16 51.97330 20.47860 14365 ft 358 kts 218°
2026-05-08 05:16 51.95294 20.45517 15116 ft 362 kts 209°
2026-05-08 05:17 51.92897 20.44120 15686 ft 374 kts 191°
2026-05-08 05:17 51.90292 20.43618 16328 ft 381 kts 186°
2026-05-08 05:17 51.87637 20.43250 17084 ft 384 kts 185°
2026-05-08 05:17 51.84964 20.42901 17867 ft 386 kts 185°
2026-05-08 05:18 51.82274 20.42537 18578 ft 390 kts 186°
2026-05-08 05:18 51.79562 20.42150 19247 ft 392 kts 186°
2026-05-08 05:18 51.76841 20.41747 19959 ft 393 kts 186°
2026-05-08 05:18 51.74115 20.41335 20643 ft 394 kts 186°
2026-05-08 05:19 51.71408 20.40922 21288 ft 397 kts 186°
2026-05-08 05:19 51.68646 20.40502 21930 ft 399 kts 186°
2026-05-08 05:19 51.65866 20.40080 22576 ft 402 kts 186°
2026-05-08 05:19 51.63075 20.39658 23202 ft 404 kts 186°
2026-05-08 05:20 51.60265 20.39233 23769 ft 407 kts 186°
2026-05-08 05:20 51.57437 20.38806 24312 ft 408 kts 186°
2026-05-08 05:20 51.54600 20.38378 24885 ft 409 kts 185°
2026-05-08 05:20 51.51762 20.37951 25442 ft 410 kts 185°
2026-05-08 05:21 51.48953 20.37528 25949 ft 412 kts 185°
2026-05-08 05:21 51.46087 20.37097 26432 ft 414 kts 185°
2026-05-08 05:21 51.43204 20.36664 26917 ft 416 kts 185°
2026-05-08 05:21 51.40318 20.36231 27391 ft 417 kts 185°
2026-05-08 05:22 51.37417 20.35797 27846 ft 419 kts 185°
2026-05-08 05:22 51.34507 20.35363 28362 ft 419 kts 185°
2026-05-08 05:22 51.31618 20.34933 29082 ft 414 kts 185°
2026-05-08 05:22 51.28800 20.34514 29858 ft 409 kts 184°
2026-05-08 05:23 51.25976 20.34093 30483 ft 407 kts 185°
2026-05-08 05:23 51.23156 20.33675 30879 ft 408 kts 185°
2026-05-08 05:23 51.20311 20.33253 31203 ft 411 kts 185°
2026-05-08 05:23 51.17461 20.32831 31607 ft 412 kts 185°
2026-05-08 05:24 51.14613 20.32410 32070 ft 411 kts 186°
2026-05-08 05:24 51.11765 20.31989 32485 ft 411 kts 186°
2026-05-08 05:24 51.08915 20.31568 32850 ft 412 kts 186°
2026-05-08 05:24 51.06048 20.31146 33238 ft 413 kts 186°
2026-05-08 05:25 51.03185 20.30724 33645 ft 413 kts 186°
2026-05-08 05:25 51.00322 20.30303 34030 ft 413 kts 187°
2026-05-08 05:25 50.97458 20.29883 34308 ft 414 kts 187°
2026-05-08 05:25 50.94581 20.29460 34560 ft 416 kts 187°
2026-05-08 05:26 50.91690 20.29037 34834 ft 417 kts 187°
2026-05-08 05:26 50.88831 20.28619 35095 ft 418 kts 187°
2026-05-08 05:26 50.85925 20.28194 35353 ft 420 kts 187°
2026-05-08 05:26 50.83013 20.27769 35602 ft 421 kts 187°
2026-05-08 05:27 50.80094 20.27343 35847 ft 422 kts 187°
2026-05-08 05:27 50.77160 20.26916 36097 ft 423 kts 187°
2026-05-08 05:27 50.74222 20.26489 36349 ft 424 kts 187°
2026-05-08 05:27 50.71280 20.26062 36576 ft 425 kts 187°
2026-05-08 05:28 50.68328 20.25633 36814 ft 426 kts 187°
2026-05-08 05:28 50.65374 20.25149 37051 ft 426 kts 190°
2026-05-08 05:28 50.62485 20.24135 37252 ft 426 kts 199°
2026-05-08 05:28 50.60611 20.23173 37413 ft 426 kts 199°
2026-05-08 05:29 50.56863 20.21300 37737 ft 428 kts 196°
2026-05-08 05:29 50.53964 20.20202 37971 ft 429 kts 194°
2026-05-08 05:29 50.51029 20.19231 38057 ft 435 kts 193°
2026-05-08 05:30 50.46000 20.17649 38061 ft 444 kts 193°
2026-05-08 05:30 50.39935 20.15709 38059 ft 444 kts 193°
2026-05-08 05:31 50.33890 20.13721 38065 ft 443 kts 193°
2026-05-08 05:31 50.30282 20.12522 38072 ft 443 kts 194°
2026-05-08 05:32 50.24254 20.10517 38070 ft 442 kts 194°
2026-05-08 05:32 50.18226 20.08517 38070 ft 442 kts 194°
2026-05-08 05:33 50.12188 20.06520 38077 ft 445 kts 194°
2026-05-08 05:33 50.06122 20.04521 38068 ft 445 kts 194°
2026-05-08 05:34 50.00111 20.02545 38064 ft 443 kts 194°
2026-05-08 05:34 49.94090 20.00571 38072 ft 442 kts 194°
2026-05-08 05:35 49.88081 19.98606 38064 ft 441 kts 194°
2026-05-08 05:35 49.82070 19.96644 38060 ft 440 kts 194°
2026-05-08 05:36 49.76068 19.94690 38052 ft 440 kts 194°
2026-05-08 05:36 49.70113 19.92757 38055 ft 440 kts 194°
2026-05-08 05:37 49.64085 19.90805 38049 ft 440 kts 194°
2026-05-08 05:37 49.58131 19.88882 38050 ft 440 kts 194°
2026-05-08 05:38 49.52138 19.86951 38043 ft 440 kts 194°
2026-05-08 05:38 49.46140 19.85022 38096 ft 442 kts 194°
2026-05-08 05:38 49.43122 19.84054 38286 ft 443 kts 194°
2026-05-08 05:39 49.40112 19.83089 38565 ft 441 kts 194°
2026-05-08 05:39 49.37099 19.82125 38782 ft 441 kts 194°
2026-05-08 05:39 49.34091 19.81164 38930 ft 442 kts 194°
2026-05-08 05:40 49.27980 19.80039 39038 ft 447 kts 180°
2026-05-08 05:40 49.21791 19.80614 39051 ft 449 kts 179°
2026-05-08 05:41 49.15540 19.81261 39054 ft 451 kts 179°
2026-05-08 05:41 49.09274 19.81852 39043 ft 451 kts 179°
2026-05-08 05:42 49.03007 19.82410 39039 ft 451 kts 180°
2026-05-08 05:42 48.96742 19.82961 39042 ft 450 kts 180°
2026-05-08 05:43 48.90485 19.83511 39039 ft 449 kts 180°
2026-05-08 05:43 48.84251 19.84059 39035 ft 448 kts 180°
2026-05-08 05:44 48.78063 19.84602 39042 ft 448 kts 180°
2026-05-08 05:44 48.71845 19.85145 39034 ft 447 kts 180°
2026-05-08 05:45 48.65627 19.85696 39040 ft 447 kts 180°
2026-05-08 05:45 48.59404 19.86260 39036 ft 447 kts 180°
2026-05-08 05:46 48.53200 19.86823 39041 ft 447 kts 180°
2026-05-08 05:46 48.47029 19.87379 39042 ft 447 kts 180°
2026-05-08 05:47 48.40823 19.87937 39042 ft 447 kts 180°
2026-05-08 05:47 48.34612 19.88493 39041 ft 446 kts 180°
2026-05-08 05:48 48.28413 19.89047 39038 ft 446 kts 180°
2026-05-08 05:48 48.22251 19.89597 39046 ft 446 kts 180°
2026-05-08 05:49 48.16060 19.90147 39043 ft 445 kts 180°
2026-05-08 05:49 48.09878 19.90696 39043 ft 445 kts 180°
2026-05-08 05:50 48.03697 19.91243 39046 ft 445 kts 180°
2026-05-08 05:50 47.97502 19.91789 39048 ft 446 kts 180°
2026-05-08 05:51 47.91306 19.92335 39046 ft 446 kts 180°
2026-05-08 05:51 47.85143 19.92876 39046 ft 446 kts 180°
2026-05-08 05:52 47.78933 19.93421 39048 ft 447 kts 181°
2026-05-08 05:52 47.72724 19.93964 39046 ft 447 kts 181°
2026-05-08 05:53 47.66505 19.94507 39050 ft 447 kts 181°
2026-05-08 05:53 47.60295 19.95047 39053 ft 447 kts 181°
2026-05-08 05:54 47.54081 19.95587 39054 ft 447 kts 181°
2026-05-08 05:54 47.47870 19.96125 39054 ft 447 kts 181°
2026-05-08 05:55 47.41696 19.96658 39052 ft 447 kts 181°
2026-05-08 05:55 47.35491 19.97194 39052 ft 447 kts 181°
2026-05-08 05:56 47.29276 19.97728 39048 ft 447 kts 181°
2026-05-08 05:56 47.23069 19.98303 39054 ft 447 kts 180°
2026-05-08 05:57 47.16858 19.98972 39045 ft 447 kts 180°
2026-05-08 05:57 47.10653 19.99646 39044 ft 447 kts 180°
2026-05-08 05:58 47.04442 20.00307 39045 ft 447 kts 180°
2026-05-08 05:58 46.98273 20.00956 39069 ft 447 kts 181°
2026-05-08 05:59 46.92078 20.01604 39065 ft 446 kts 181°
2026-05-08 05:59 46.85872 20.02253 39066 ft 446 kts 181°
2026-05-08 06:00 46.79678 20.02899 39062 ft 446 kts 181°
2026-05-08 06:00 46.73482 20.03544 39059 ft 446 kts 181°
2026-05-08 06:01 46.67298 20.04186 39056 ft 446 kts 181°
2026-05-08 06:01 46.61115 20.04826 39057 ft 445 kts 181°
2026-05-08 06:02 46.54926 20.05466 39057 ft 445 kts 181°
2026-05-08 06:02 46.48783 20.06100 39059 ft 445 kts 181°
2026-05-08 06:03 46.42606 20.06735 39057 ft 444 kts 181°
2026-05-08 06:03 46.36438 20.07368 39061 ft 444 kts 181°
2026-05-08 06:04 46.30269 20.08000 39059 ft 444 kts 181°
2026-05-08 06:04 46.24105 20.08630 39062 ft 444 kts 181°
2026-05-08 06:05 46.17986 20.09273 39061 ft 445 kts 178°
2026-05-08 06:05 46.11916 20.11403 39077 ft 453 kts 166°
2026-05-08 06:06 46.05952 20.14374 39069 ft 453 kts 166°
2026-05-08 06:06 45.99988 20.17340 39066 ft 454 kts 166°
2026-05-08 06:07 45.94008 20.20257 39065 ft 454 kts 166°
2026-05-08 06:07 45.88016 20.23147 39066 ft 454 kts 166°
2026-05-08 06:08 45.82019 20.26027 39068 ft 454 kts 166°
2026-05-08 06:08 45.76019 20.28904 39064 ft 455 kts 166°
2026-05-08 06:09 45.70043 20.31763 39066 ft 456 kts 166°
2026-05-08 06:09 45.64027 20.34636 39065 ft 456 kts 166°
2026-05-08 06:10 45.58001 20.37508 39066 ft 457 kts 166°
2026-05-08 06:10 45.51957 20.40380 39066 ft 458 kts 166°
2026-05-08 06:11 45.45909 20.43249 39067 ft 458 kts 166°
2026-05-08 06:11 45.39843 20.46120 39065 ft 459 kts 166°
2026-05-08 06:12 45.33776 20.48985 39070 ft 459 kts 166°
2026-05-08 06:12 45.27707 20.51844 39064 ft 460 kts 166°
2026-05-08 06:13 45.21669 20.54683 39068 ft 460 kts 166°
2026-05-08 06:13 45.15592 20.57532 39068 ft 460 kts 166°
2026-05-08 06:14 45.09504 20.60381 39068 ft 460 kts 167°
2026-05-08 06:14 45.03468 20.63200 39069 ft 460 kts 167°
2026-05-08 06:15 44.97400 20.66027 39072 ft 459 kts 167°
2026-05-08 06:15 44.91328 20.68850 39068 ft 459 kts 167°
2026-05-08 06:16 44.85264 20.71662 39068 ft 458 kts 167°
2026-05-08 06:16 44.79211 20.74464 39063 ft 457 kts 167°
2026-05-08 06:17 44.70149 20.78688 39053 ft 458 kts 166°
2026-05-08 06:17 44.65182 20.81287 39063 ft 458 kts 165°
2026-05-08 06:18 44.58268 20.85029 39060 ft 458 kts 165°
2026-05-08 06:18 44.53285 20.87696 39060 ft 457 kts 165°
2026-05-08 06:19 44.47368 20.90824 39056 ft 457 kts 165°
2026-05-08 06:19 44.41422 20.93946 39060 ft 456 kts 166°
2026-05-08 06:20 44.35470 20.97063 39054 ft 457 kts 166°
2026-05-08 06:20 44.29502 21.00183 39048 ft 457 kts 166°
2026-05-08 06:21 44.23540 21.03295 39053 ft 457 kts 166°
2026-05-08 06:21 44.17577 21.06400 39054 ft 457 kts 166°
2026-05-08 06:22 44.11608 21.09501 39057 ft 457 kts 166°
2026-05-08 06:22 44.05646 21.12592 39059 ft 458 kts 166°
2026-05-08 06:23 43.99674 21.15682 39057 ft 457 kts 166°
2026-05-08 06:23 43.93749 21.18742 39061 ft 457 kts 166°
2026-05-08 06:24 43.87781 21.21816 39059 ft 458 kts 166°
2026-05-08 06:24 43.81808 21.24886 39064 ft 458 kts 166°
2026-05-08 06:25 43.75838 21.27949 39061 ft 457 kts 166°
2026-05-08 06:25 43.70132 21.30870 39055 ft 457 kts 166°
2026-05-08 06:26 43.64161 21.33920 39062 ft 457 kts 166°
2026-05-08 06:26 43.58196 21.36961 39060 ft 457 kts 166°
2026-05-08 06:27 43.52268 21.39976 39057 ft 457 kts 166°
2026-05-08 06:27 43.46304 21.43004 39055 ft 456 kts 166°
2026-05-08 06:28 43.40351 21.46021 39068 ft 455 kts 167°
2026-05-08 06:28 43.34399 21.49028 39070 ft 455 kts 167°
2026-05-08 06:29 43.28456 21.52025 39069 ft 455 kts 167°
2026-05-08 06:29 43.22513 21.55017 39074 ft 455 kts 167°
2026-05-08 06:30 43.16566 21.58005 39072 ft 455 kts 167°
2026-05-08 06:30 43.10653 21.60969 39071 ft 456 kts 167°
2026-05-08 06:31 43.04698 21.63949 39066 ft 455 kts 167°
2026-05-08 06:31 42.98744 21.66923 39068 ft 455 kts 167°
2026-05-08 06:32 42.92781 21.69856 39068 ft 454 kts 168°
2026-05-08 06:32 42.86808 21.72646 39074 ft 454 kts 168°
2026-05-08 06:33 42.80820 21.75416 39071 ft 454 kts 168°
2026-05-08 06:33 42.74867 21.78179 39074 ft 454 kts 168°
2026-05-08 06:34 42.68872 21.80968 39070 ft 454 kts 168°
2026-05-08 06:34 42.62892 21.83749 39068 ft 453 kts 168°
2026-05-08 06:35 42.56933 21.86515 39076 ft 452 kts 168°
2026-05-08 06:35 42.50972 21.89273 39085 ft 453 kts 168°
2026-05-08 06:36 42.45043 21.92011 39096 ft 453 kts 168°
2026-05-08 06:36 42.39052 21.94771 39093 ft 455 kts 168°
2026-05-08 06:37 42.33046 21.97534 39094 ft 456 kts 168°
2026-05-08 06:37 42.27030 22.00297 39088 ft 457 kts 168°
2026-05-08 06:38 42.21030 22.03046 39093 ft 458 kts 168°
2026-05-08 06:38 42.14990 22.05809 39094 ft 458 kts 168°
2026-05-08 06:39 42.08959 22.08562 39091 ft 457 kts 168°
2026-05-08 06:39 42.02929 22.11308 39091 ft 457 kts 168°
2026-05-08 06:40 41.96906 22.14046 39091 ft 456 kts 168°
2026-05-08 06:40 41.90886 22.16777 39094 ft 456 kts 168°
2026-05-08 06:41 41.84870 22.19500 39093 ft 456 kts 168°
2026-05-08 06:41 41.78891 22.22202 39094 ft 456 kts 168°
2026-05-08 06:42 41.72879 22.24913 39095 ft 455 kts 168°
2026-05-08 06:42 41.66877 22.27615 39091 ft 455 kts 168°
2026-05-08 06:43 41.60874 22.30311 39085 ft 453 kts 168°
2026-05-08 06:43 41.54894 22.32992 39080 ft 453 kts 168°
2026-05-08 06:44 41.48917 22.35666 39089 ft 452 kts 168°
2026-05-08 06:44 41.42952 22.38330 39092 ft 452 kts 169°
2026-05-08 06:45 41.36982 22.40990 39095 ft 452 kts 169°
2026-05-08 06:45 41.31051 22.43629 39084 ft 452 kts 169°
2026-05-08 06:46 41.25076 22.46282 39091 ft 452 kts 169°
2026-05-08 06:46 41.19115 22.48924 39092 ft 452 kts 169°
2026-05-08 06:47 41.13152 22.51597 39095 ft 455 kts 166°
2026-05-08 06:47 41.07408 22.55406 39092 ft 464 kts 159°
2026-05-08 06:48 41.01745 22.59540 39088 ft 465 kts 159°
2026-05-08 06:48 40.96064 22.63645 39090 ft 465 kts 159°
2026-05-08 06:49 40.90354 22.67708 39091 ft 466 kts 159°
2026-05-08 06:49 40.84658 22.71735 39092 ft 467 kts 159°
2026-05-08 06:50 40.78926 22.75780 39093 ft 468 kts 159°
2026-05-08 06:50 40.73172 22.79835 39103 ft 469 kts 160°
2026-05-08 06:51 40.67442 22.83866 39101 ft 469 kts 160°
2026-05-08 06:51 40.64549 22.85895 38677 ft 475 kts 160°
2026-05-08 06:51 40.61630 22.87943 38032 ft 471 kts 160°
2026-05-08 06:52 40.58732 22.89978 37263 ft 469 kts 160°
2026-05-08 06:52 40.55861 22.91992 36557 ft 467 kts 160°
2026-05-08 06:52 40.52997 22.93996 35800 ft 466 kts 160°
2026-05-08 06:52 40.50130 22.95999 34978 ft 467 kts 160°
2026-05-08 06:53 40.47257 22.98003 34151 ft 468 kts 160°
2026-05-08 06:53 40.44338 22.99872 33160 ft 463 kts 165°
2026-05-08 06:53 40.41339 23.01400 32228 ft 462 kts 166°
2026-05-08 06:53 40.38323 23.02868 31256 ft 463 kts 166°
2026-05-08 06:54 40.35297 23.04328 30362 ft 463 kts 165°
2026-05-08 06:54 40.32297 23.05790 29633 ft 457 kts 165°
2026-05-08 06:54 40.29338 23.07248 28905 ft 451 kts 165°
2026-05-08 06:54 40.26426 23.08692 28223 ft 444 kts 165°
2026-05-08 06:55 40.23555 23.10118 27547 ft 438 kts 165°
2026-05-08 06:55 40.20754 23.11508 26880 ft 433 kts 165°
2026-05-08 06:55 40.17951 23.12897 26215 ft 428 kts 165°
2026-05-08 06:55 40.15181 23.14267 25600 ft 423 kts 165°
2026-05-08 06:56 40.12445 23.15620 24963 ft 419 kts 165°
2026-05-08 06:56 40.09729 23.16961 24327 ft 415 kts 165°
2026-05-08 06:56 40.07039 23.18288 23707 ft 411 kts 165°
2026-05-08 06:56 40.04373 23.19603 22972 ft 408 kts 165°
2026-05-08 06:57 40.01732 23.20903 22315 ft 403 kts 165°
2026-05-08 06:57 39.99122 23.22189 21689 ft 397 kts 164°
2026-05-08 06:57 39.96547 23.23456 21296 ft 390 kts 164°
2026-05-08 06:57 39.94069 23.24676 21164 ft 383 kts 164°
2026-05-08 06:58 39.91580 23.25897 21111 ft 376 kts 164°
2026-05-08 06:58 39.89179 23.27079 21094 ft 361 kts 165°
2026-05-08 06:58 39.86888 23.28208 21091 ft 344 kts 165°
2026-05-08 06:58 39.84707 23.29280 21028 ft 330 kts 165°
2026-05-08 06:59 39.82570 23.30324 20619 ft 328 kts 165°
2026-05-08 06:59 39.80413 23.31372 20025 ft 333 kts 165°
2026-05-08 06:59 39.78243 23.32431 19593 ft 332 kts 164°
2026-05-08 06:59 39.76093 23.33483 19234 ft 329 kts 164°
2026-05-08 07:00 39.73959 23.34526 18872 ft 326 kts 164°
2026-05-08 07:00 39.71846 23.35558 18491 ft 324 kts 164°
2026-05-08 07:00 39.69737 23.36586 18082 ft 322 kts 163°
2026-05-08 07:00 39.67649 23.37603 17659 ft 319 kts 163°
2026-05-08 07:01 39.65575 23.38612 17253 ft 317 kts 163°
2026-05-08 07:01 39.63518 23.39612 16840 ft 315 kts 163°
2026-05-08 07:01 39.61473 23.40607 16445 ft 313 kts 163°
2026-05-08 07:01 39.59443 23.41593 16054 ft 310 kts 163°
2026-05-08 07:02 39.57427 23.42572 15672 ft 308 kts 162°
2026-05-08 07:02 39.55428 23.43542 15291 ft 306 kts 162°
2026-05-08 07:02 39.53440 23.44507 14920 ft 304 kts 162°
2026-05-08 07:02 39.51468 23.45463 14581 ft 301 kts 162°
2026-05-08 07:03 39.49550 23.46394 14466 ft 286 kts 162°
2026-05-08 07:03 39.47720 23.47281 14030 ft 286 kts 162°
2026-05-08 07:03 39.45862 23.48179 13695 ft 284 kts 162°
2026-05-08 07:03 39.44022 23.49069 13379 ft 281 kts 162°
2026-05-08 07:04 39.42192 23.49952 13041 ft 280 kts 162°
2026-05-08 07:04 39.40368 23.50834 12728 ft 279 kts 162°
2026-05-08 07:04 39.38566 23.51706 12347 ft 274 kts 162°
2026-05-08 07:04 39.36781 23.52568 11777 ft 274 kts 162°
2026-05-08 07:05 39.34994 23.53432 11253 ft 274 kts 162°
2026-05-08 07:05 39.33216 23.54291 10771 ft 271 kts 161°
2026-05-08 07:05 39.31454 23.55141 10303 ft 269 kts 161°
2026-05-08 07:05 39.29696 23.55989 9888 ft 271 kts 161°
2026-05-08 07:06 39.28534 23.56550 9630 ft 265 kts 161°
2026-05-08 07:06 39.26834 23.57372 9393 ft 252 kts 161°
2026-05-08 07:06 39.25239 23.58142 9115 ft 239 kts 162°
2026-05-08 07:06 39.23681 23.58891 8447 ft 240 kts 162°
2026-05-08 07:07 39.22114 23.59645 7811 ft 240 kts 162°
2026-05-08 07:07 39.20552 23.60395 7220 ft 239 kts 162°
2026-05-08 07:07 39.19005 23.61074 6633 ft 236 kts 173°
2026-05-08 07:07 39.17391 23.61003 6094 ft 231 kts 194°
2026-05-08 07:08 39.15909 23.60269 5569 ft 227 kts 207°
2026-05-08 07:08 39.14507 23.59353 4990 ft 225 kts 208°
2026-05-08 07:08 39.13123 23.58418 4427 ft 224 kts 208°
2026-05-08 07:08 39.11742 23.57491 4223 ft 226 kts 208°
2026-05-08 07:09 39.10348 23.56565 4099 ft 224 kts 208°
2026-05-08 07:09 39.08973 23.55660 4007 ft 217 kts 207°
2026-05-08 07:09 39.07673 23.54808 3897 ft 202 kts 207°
2026-05-08 07:09 39.06462 23.54017 3783 ft 187 kts 207°
2026-05-08 07:10 39.05331 23.53279 3539 ft 180 kts 207°
2026-05-08 07:10 39.04220 23.52554 3195 ft 178 kts 207°
2026-05-08 07:10 39.03118 23.51826 2831 ft 177 kts 211°
2026-05-08 07:10 39.02303 23.50660 2450 ft 178 kts 243°
2026-05-08 07:11 39.02088 23.49095 2102 ft 180 kts 274°
2026-05-08 07:11 39.02546 23.47675 1983 ft 170 kts 307°
2026-05-08 07:11 39.03501 23.46804 1875 ft 170 kts 338°
2026-05-08 07:11 39.04658 23.46651 1774 ft 168 kts
2026-05-08 07:12 39.05800 23.46962 1733 ft 168 kts 10°
2026-05-08 07:12 39.06926 23.47258 1615 ft 159 kts 10°
2026-05-08 07:12 39.07957 23.47534 1589 ft 144 kts 11°
2026-05-08 07:12 39.08920 23.47793 1587 ft 140 kts 10°
2026-05-08 07:13 39.09868 23.48048 1509 ft 140 kts 11°
2026-05-08 07:13 39.10842 23.48293 1349 ft 145 kts
2026-05-08 07:13 39.11831 23.48518 1138 ft 143 kts
2026-05-08 07:13 39.12808 23.48716 897 ft 139 kts
2026-05-08 07:14 39.13749 23.48883 693 ft 133 kts 10°